Left ArrowRight Arrow

34.16533, -84.80231

Hourly Observations for April 23, 2016

Temp ( °F °C ) Dew Point ( °F °C ) Humidity (%) Winds ( mph kmh ) Pressure ( in mb ) Visibility ( mi km ) Precip ( " mm )
12:53 am 00:53 Clear 57 13.9 57 13.9 100 100 Calm 29.94 1014 7 11 0.00 0.00
1:16 am 01:16 Clear with Mist and Fog 56 13.3 56 13.3 100 100 Calm 29.97 1015 2 3 0.00 0.00
1:24 am 01:24 Clear with Mist and Fog 56 13.3 56 13.3 100 100 Calm 29.97 1015 3 5 0.00 0.00
1:50 am 01:50 Clear with Mist and Fog 55 13 55 13 100 100 Calm 30.00 1016 2 3 0.00 0.00
1:53 am 01:53 Clear with Mist and Fog 57 13.9 56 13.3 96 96 Calm 29.94 1014 3 5 0.00 0.00
2:53 am 02:53 Clear 56 13.3 56 13.3 100 100 Calm 29.93 1014 9 14 0.00 0.00
3:53 am 03:53 Clear 56 13.3 55 12.8 97 97 Calm 29.93 1014 10 16 0.00 0.00
4:53 am 04:53 Clear 54 12.2 53 11.7 97 97 Calm 29.93 1014 10 16 0.00 0.00
5:53 am 05:53 Clear 53 11.7 52 11.1 96 96 Calm 29.93 1014 10 16 0.00 0.00
6:53 am 06:53 Clear 50 10 50 10 100 100 Calm 29.95 1014 8 13 0.00 0.00
7:53 am 07:53 Sunny 53 11.7 52 11.1 96 96 Calm 29.98 1015 10 16 0.00 0.00
8:53 am 08:53 Sunny 58 14.4 54 12.2 87 87 Calm 29.98 1015 10 16 0.00 0.00
9:53 am 09:53 Sunny 64 17.8 54 12.2 70 70 N 9 15 29.99 1016 10 16 0.00 0.00
10:53 am 10:53 Mostly Cloudy 67 19.4 53 11.7 61 61 N 10 17 30.00 1016 10 16 0.00 0.00
11:53 am 11:53 Partly Cloudy 69 20.6 53 11.7 57 57 N 9 15 30.00 1016 10 16 0.00 0.00
12:53 pm 12:53 Mostly Sunny 70 21.1 52 11.1 53 53 N 15 24 30.00 1016 10 16 0.00 0.00
1:53 pm 13:53 Sunny 71 21.7 52 11.1 51 51 NNW 10 17 29.98 1015 10 16 0.00 0.00
2:53 pm 14:53 Mostly Sunny 73 22.8 52 11.1 48 48 N 10 17 29.96 1015 10 16 0.00 0.00
3:53 pm 15:53 Sunny 74 23.3 52 11.1 46 46 N 12 19 29.95 1014 10 16 0.00 0.00
4:53 pm 16:53 Sunny 74 23.3 52 11.1 46 46 NNW 10 17 29.94 1014 10 16 0.00 0.00
5:53 pm 17:53 Sunny 73 22.8 50 10 44 44 N 8 13 29.94 1014 10 16 0.00 0.00
6:53 pm 18:53 Sunny 71 21.7 49 9.4 46 46 N 13 20 29.95 1014 10 16 0.00 0.00
7:53 pm 19:53 Sunny 69 20.6 49 9.4 49 49 N 9 15 29.96 1014 10 16 0.00 0.00
8:53 pm 20:53 Clear 65 18.3 50 10 59 59 VRB 3 6 29.96 1015 10 16 0.00 0.00
9:53 pm 21:53 Clear 62 16.7 50 10 65 65 NNW 3 6 29.98 1015 10 16 0.00 0.00
10:53 pm 22:53 Clear 57 13.9 50 10 78 78 Calm 29.98 1015 10 16 0.00 0.00
11:53 pm 23:53 Clear 53 11.7 50 10 89 89 Calm 29.99 1016 10 16 0.00 0.00

Powered by Vaisala Xweather